Jaffrey, NH

7:58 PM EST on February 24, 2017 (GMT -0500)
Jaffrey Airport-Silver Ranch

Weather History for KAFN - September, 2012

Change the Weather History Date:

Tuesday, September 25, 2012

  Actual Average Record
Temperature  
Mean Temperature 54 °F -  
Max Temperature 69 °F 64 °F 82 °F (2007)
Min Temperature 39 °F 43 °F 35 °F (1997)
Degree Days  
Heating Degree Days 12    
Growing Degree Days 4 (Base 50)    
Moisture  
Dew Point 40 °F    
Average Humidity 64    
Maximum Humidity 87    
Minimum Humidity 33    
Precipitation  
Precipitation 0.01 in - - ()
Sea Level Pressure  
Sea Level Pressure 30.15 in    
Wind  
Wind Speed 3 mph (SSW)    
Max Wind Speed 13 mph    
Max Gust Speed 22 mph    
Visibility 10 miles    
Events      
Averages and records for this station are not official NWS values.
T = Trace of Precipitation, MM = Missing Value Source: NWS Daily Summary

Daily Weather History Graph

Daily Weather History Graph

Search for Another Location

Airport or City:

Trip Planner

Search our weather history database for the weather conditions in past years. The results will help you decide how hot, cold, wet, or windy it might be!

Date:

Astronomy

Sep. 25, 2012 Rise Set
Actual Time 6:39 AM EDT 6:39 PM EDT
Civil Twilight 6:10 AM EDT 7:07 PM EDT
Nautical Twilight 5:37 AM EDT 7:40 PM EDT
Astronomical Twilight 5:04 AM EDT 8:13 PM EDT
Moon 4:07 PM EDT 1:51 AM EDT
Length of Visible Light 12h 56m
Length of Day
12h 00m
Waxing Gibbous, 80% of the Moon is Illuminated
Sep 25
Waxing Gibbous
Sep 29
Full
Oct 8
Last Quarter
Oct 15
New
Oct 21
First Quarter

Hourly Weather History & Observations

Time (EDT) Temp. Dew Point Humidity Pressure Visibility Wind Dir Wind Speed Gust Speed Precip Events Conditions
12:29 AM 39.2 °F 35.6 °F 87% 30.11 in 10.0 mi Calm Calm - N/A   Scattered Clouds
12:52 AM 39.9 °F 35.1 °F 83% 30.14 in 10.0 mi Calm Calm - N/A   Partly Cloudy
2:52 AM 39.9 °F 36.0 °F 86% 30.14 in 10.0 mi Calm Calm - N/A   Clear
3:52 AM 41.0 °F 36.0 °F 82% 30.13 in 10.0 mi Calm Calm - N/A   Clear
4:52 AM 39.9 °F 36.0 °F 86% 30.14 in 10.0 mi Calm Calm - N/A   Clear
5:52 AM 39.0 °F 35.1 °F 86% 30.15 in 10.0 mi Calm Calm - N/A   Clear
6:52 AM 39.0 °F 35.1 °F 86% 30.16 in 10.0 mi Calm Calm - N/A   Clear
7:52 AM 41.0 °F 37.0 °F 86% 30.17 in 10.0 mi Calm Calm - N/A   Clear
8:52 AM 51.1 °F 41.0 °F 68% 30.18 in - Variable 5.8 mph - N/A   Clear
9:52 AM 55.9 °F 41.0 °F 57% 30.17 in - Variable 4.6 mph - N/A   Clear
10:52 AM 60.1 °F 39.0 °F 46% 30.17 in 10.0 mi SSW 10.4 mph - N/A   Unknown
11:52 AM - - N/A% 30.13 in 10.0 mi North - - N/A   Clear
12:52 PM 66.0 °F 39.9 °F 38% 30.14 in 10.0 mi North - - 0.01 in   Clear
1:52 PM 66.9 °F 37.9 °F 34% 30.14 in 10.0 mi SW 11.5 mph 21.9 mph N/A   Clear
3:52 PM 68.0 °F 39.0 °F 35% 30.14 in 10.0 mi South 12.7 mph 19.6 mph N/A   Clear
4:52 PM 68.0 °F 37.9 °F 33% 30.14 in 10.0 mi SSW 12.7 mph 18.4 mph N/A   Clear
5:52 PM 66.9 °F 39.0 °F 36% 30.14 in 10.0 mi SSW 6.9 mph - N/A   Clear
6:52 PM 59.0 °F 44.1 °F 58% 30.14 in 10.0 mi South 4.6 mph - N/A   Clear
7:52 PM 59.0 °F 43.0 °F 55% 30.15 in 10.0 mi SSW 3.5 mph - N/A   Clear
8:52 PM 57.0 °F 45.0 °F 64% 30.17 in 10.0 mi SSW 4.6 mph - N/A   Clear
10:52 PM 60.1 °F 48.9 °F 67% 30.14 in 10.0 mi SSW 9.2 mph - N/A   Overcast
11:52 PM 60.1 °F 50.0 °F 69% 30.12 in 10.0 mi SSW 8.1 mph - N/A   Overcast